AHY8233 UBBB-UGTB

Flight info

Callsign AHY8233
Flight time 0h 51m
Altitude 28000
Route RASAM DCT BEKIR L850 ADEKI DCT LAMUS
Aircraft A346/H-SDE2E3FGHIJ3J4J5M1RWXY/LB1D1

Departure

Time 2026-05-01 13:14
Airport Heydar Aliyev International Airport (UBBB)

Arrival

Time 2026-05-01 14:05
Airport Tbilisi International Airport (UGTB)
Time Latitude Longitude Altitude Speed Heading
2026-05-01 12:49 40.46750 50.05241 0 ft 0 kts 176°
2026-05-01 13:01 40.46753 50.05241 0 ft 2 kts 176°
2026-05-01 13:01 40.46768 50.05239 0 ft 2 kts 176°
2026-05-01 13:01 40.46793 50.05236 0 ft 2 kts 163°
2026-05-01 13:02 40.46806 50.05229 0 ft 2 kts 147°
2026-05-01 13:07 40.46884 50.05383 0 ft 8 kts
2026-05-01 13:07 40.46918 50.05390 0 ft 3 kts 45°
2026-05-01 13:07 40.46933 50.05442 0 ft 8 kts 81°
2026-05-01 13:08 40.46938 50.05527 0 ft 10 kts 88°
2026-05-01 13:08 40.46940 50.05633 1 ft 12 kts 89°
2026-05-01 13:08 40.46942 50.05750 2 ft 13 kts 89°
2026-05-01 13:08 40.46946 50.05885 3 ft 15 kts 88°
2026-05-01 13:09 40.46948 50.05985 5 ft 3 kts 89°
2026-05-01 13:09 40.46948 50.06031 5 ft 6 kts 89°
2026-05-01 13:09 40.46973 50.06076 6 ft 7 kts 20°
2026-05-01 13:09 40.47038 50.06086 7 ft 11 kts 359°
2026-05-01 13:10 40.47134 50.06084 7 ft 16 kts 359°
2026-05-01 13:10 40.47261 50.06083 8 ft 20 kts 359°
2026-05-01 13:10 40.47417 50.06080 8 ft 24 kts 359°
2026-05-01 13:10 40.47589 50.06078 11 ft 24 kts 360°
2026-05-01 13:11 40.47766 50.06076 11 ft 26 kts 359°
2026-05-01 13:11 40.47953 50.06073 12 ft 27 kts 359°
2026-05-01 13:11 40.48147 50.06070 13 ft 28 kts 359°
2026-05-01 13:11 40.48315 50.06068 15 ft 17 kts 359°
2026-05-01 13:12 40.48427 50.06067 15 ft 12 kts
2026-05-01 13:12 40.48488 50.06097 16 ft 9 kts 47°
2026-05-01 13:12 40.48505 50.06181 18 ft 10 kts 94°
2026-05-01 13:12 40.48502 50.06256 18 ft 3 kts 108°
2026-05-01 13:13 40.48469 50.06280 18 ft 7 kts 170°
2026-05-01 13:13 40.48404 50.06283 18 ft 10 kts 180°
2026-05-01 13:13 40.48250 50.06284 15 ft 49 kts 179°
2026-05-01 13:13 40.47660 50.06294 12 ft 118 kts 180°
2026-05-01 13:14 40.46650 50.06298 50 ft 167 kts 177°
2026-05-01 13:14 40.45462 50.06312 612 ft 173 kts 177°
2026-05-01 13:14 40.44265 50.06344 1262 ft 178 kts 177°
2026-05-01 13:14 40.43028 50.06378 2059 ft 178 kts 178°
2026-05-01 13:15 40.41820 50.06404 2890 ft 174 kts 178°
2026-05-01 13:15 40.40617 50.06425 3556 ft 179 kts 179°
2026-05-01 13:15 40.39321 50.06450 4012 ft 196 kts 180°
2026-05-01 13:15 40.37920 50.06450 4486 ft 211 kts 181°
2026-05-01 13:16 40.36394 50.06131 4901 ft 233 kts 201°
2026-05-01 13:16 40.34951 50.05000 5434 ft 251 kts 216°
2026-05-01 13:16 40.33552 50.03636 6215 ft 259 kts 215°
2026-05-01 13:17 40.29122 49.99418 7902 ft 268 kts 232°
2026-05-01 13:17 40.28328 49.97216 7975 ft 271 kts 258°
2026-05-01 13:18 40.28207 49.92252 7980 ft 272 kts 267°
2026-05-01 13:18 40.28169 49.89779 7981 ft 273 kts 266°
2026-05-01 13:18 40.28120 49.87316 7975 ft 272 kts 266°
2026-05-01 13:18 40.28067 49.84820 7969 ft 272 kts 266°
2026-05-01 13:19 40.28010 49.82364 7975 ft 272 kts 266°
2026-05-01 13:19 40.27953 49.79877 7974 ft 272 kts 266°
2026-05-01 13:19 40.27838 49.74946 7970 ft 271 kts 266°
2026-05-01 13:20 40.27810 49.72495 7968 ft 272 kts 273°
2026-05-01 13:20 40.28355 49.70089 7964 ft 280 kts 297°
2026-05-01 13:20 40.29565 49.68040 8426 ft 292 kts 309°
2026-05-01 13:21 40.32175 49.64127 10376 ft 289 kts 309°
2026-05-01 13:21 40.33522 49.62083 10926 ft 303 kts 309°
2026-05-01 13:21 40.34932 49.59933 11344 ft 321 kts 309°
2026-05-01 13:21 40.36426 49.57653 11725 ft 340 kts 309°
2026-05-01 13:22 40.38005 49.55241 12106 ft 358 kts 309°
2026-05-01 13:22 40.39672 49.52692 12453 ft 376 kts 309°
2026-05-01 13:22 40.41387 49.50067 13059 ft 385 kts 309°
2026-05-01 13:22 40.43122 49.47414 13855 ft 388 kts 309°
2026-05-01 13:23 40.44887 49.44709 14643 ft 392 kts 309°
2026-05-01 13:23 40.46668 49.41976 15381 ft 395 kts 309°
2026-05-01 13:23 40.48434 49.39261 16120 ft 399 kts 309°
2026-05-01 13:23 40.50251 49.36462 16841 ft 403 kts 309°
2026-05-01 13:24 40.52053 49.33685 17531 ft 406 kts 308°
2026-05-01 13:24 40.53900 49.30835 18220 ft 410 kts 308°
2026-05-01 13:24 40.55744 49.27989 18876 ft 414 kts 308°
2026-05-01 13:25 40.59475 49.22121 20082 ft 423 kts 305°
2026-05-01 13:25 40.61152 49.18934 20627 ft 428 kts 300°
2026-05-01 13:25 40.62609 49.15563 21220 ft 430 kts 295°
2026-05-01 13:25 40.63906 49.12000 21865 ft 432 kts 293°
2026-05-01 13:26 40.65155 49.08426 22489 ft 435 kts 293°
2026-05-01 13:26 40.66412 49.04792 23056 ft 439 kts 293°
2026-05-01 13:26 40.67680 49.01121 23622 ft 442 kts 293°
2026-05-01 13:26 40.68944 48.97466 24172 ft 445 kts 293°
2026-05-01 13:27 40.70236 48.93732 24704 ft 449 kts 293°
2026-05-01 13:27 40.71522 48.90011 25228 ft 452 kts 293°
2026-05-01 13:27 40.74138 48.82437 26223 ft 459 kts 292°
2026-05-01 13:28 40.76785 48.74747 27223 ft 464 kts 292°
2026-05-01 13:28 40.78115 48.70874 27679 ft 468 kts 292°
2026-05-01 13:29 40.80794 48.63061 28018 ft 470 kts 292°
2026-05-01 13:29 40.83485 48.55193 28040 ft 469 kts 292°
2026-05-01 13:31 40.91477 48.31687 28076 ft 468 kts 291°
2026-05-01 13:32 40.98087 48.12085 28089 ft 468 kts 291°
2026-05-01 13:33 41.04636 47.92462 28089 ft 467 kts 290°
2026-05-01 13:34 41.08602 47.76163 28083 ft 464 kts 284°
2026-05-01 13:35 41.11228 47.63811 28079 ft 467 kts 284°
2026-05-01 13:36 41.13849 47.51434 28094 ft 468 kts 283°
2026-05-01 13:36 41.16472 47.38983 28100 ft 468 kts 283°
2026-05-01 13:37 41.17920 47.32080 28096 ft 461 kts 283°
2026-05-01 13:37 41.19049 47.26680 27858 ft 459 kts 283°
2026-05-01 13:37 41.19897 47.22613 27479 ft 457 kts 283°
2026-05-01 13:38 41.21565 47.14588 26353 ft 451 kts 283°
2026-05-01 13:38 41.22397 47.10574 25926 ft 444 kts 283°
2026-05-01 13:38 41.23201 47.06692 25515 ft 439 kts 283°
2026-05-01 13:39 41.23998 47.02828 25102 ft 434 kts 283°
2026-05-01 13:39 41.24795 46.98956 24662 ft 429 kts 283°
2026-05-01 13:39 41.25568 46.95195 24233 ft 425 kts 283°
2026-05-01 13:39 41.26346 46.91403 23827 ft 421 kts 283°
2026-05-01 13:40 41.27105 46.87691 23407 ft 417 kts 283°
2026-05-01 13:40 41.27849 46.84047 23007 ft 413 kts 283°
2026-05-01 13:40 41.28598 46.80372 22574 ft 409 kts 283°
2026-05-01 13:40 41.29204 46.77398 22225 ft 407 kts 283°
2026-05-01 13:41 41.29939 46.73802 21814 ft 404 kts 283°
2026-05-01 13:41 41.30690 46.70196 21385 ft 400 kts 284°
2026-05-01 13:41 41.31421 46.66693 20983 ft 397 kts 284°
2026-05-01 13:41 41.32155 46.63167 20579 ft 394 kts 284°
2026-05-01 13:42 41.32884 46.59657 20146 ft 391 kts 284°
2026-05-01 13:42 41.33608 46.56153 19811 ft 400 kts 284°
2026-05-01 13:42 41.34347 46.52568 19560 ft 405 kts 284°
2026-05-01 13:42 41.35090 46.48964 19290 ft 405 kts 284°
2026-05-01 13:43 41.35824 46.45390 19020 ft 403 kts 284°
2026-05-01 13:43 41.36562 46.41797 18757 ft 402 kts 284°
2026-05-01 13:43 41.37296 46.38208 18512 ft 400 kts 283°
2026-05-01 13:43 41.38016 46.34683 18266 ft 399 kts 283°
2026-05-01 13:44 41.38742 46.31124 18007 ft 397 kts 283°
2026-05-01 13:44 41.39460 46.27593 17760 ft 396 kts 283°
2026-05-01 13:44 41.40174 46.24084 17496 ft 395 kts 283°
2026-05-01 13:44 41.40893 46.20533 17263 ft 394 kts 283°
2026-05-01 13:45 41.41599 46.17046 17009 ft 392 kts 283°
2026-05-01 13:45 41.42305 46.13552 16760 ft 391 kts 283°
2026-05-01 13:45 41.43002 46.10095 16536 ft 390 kts 283°
2026-05-01 13:45 41.43704 46.06612 16305 ft 389 kts 283°
2026-05-01 13:46 41.44403 46.03133 16068 ft 388 kts 283°
2026-05-01 13:46 41.45091 45.99698 15821 ft 387 kts 283°
2026-05-01 13:46 41.45792 45.96203 15581 ft 386 kts 283°
2026-05-01 13:46 41.46473 45.92795 15341 ft 385 kts 283°
2026-05-01 13:47 41.47163 45.89338 15075 ft 383 kts 283°
2026-05-01 13:47 41.47845 45.85921 14811 ft 382 kts 283°
2026-05-01 13:47 41.48517 45.82544 14553 ft 380 kts 283°
2026-05-01 13:47 41.49192 45.79138 14312 ft 379 kts 283°
2026-05-01 13:48 41.49861 45.75763 14063 ft 378 kts 283°
2026-05-01 13:48 41.50529 45.72382 13818 ft 377 kts 283°
2026-05-01 13:48 41.51192 45.69015 13562 ft 376 kts 283°
2026-05-01 13:48 41.51858 45.65632 13313 ft 375 kts 283°
2026-05-01 13:49 41.52517 45.62282 13078 ft 375 kts 283°
2026-05-01 13:49 41.53173 45.58944 12826 ft 374 kts 283°
2026-05-01 13:49 41.53871 45.55610 12575 ft 374 kts 287°
2026-05-01 13:49 41.54848 45.52418 12324 ft 375 kts 294°
2026-05-01 13:50 41.56137 45.49386 12082 ft 376 kts 301°
2026-05-01 13:50 41.57638 45.46559 11838 ft 376 kts 304°
2026-05-01 13:50 41.59205 45.43731 11588 ft 376 kts 305°
2026-05-01 13:50 41.60749 45.40960 11352 ft 375 kts 305°
2026-05-01 13:51 41.62298 45.38174 11103 ft 373 kts 305°
2026-05-01 13:51 41.63848 45.35375 10852 ft 372 kts 305°
2026-05-01 13:51 41.65375 45.32612 10610 ft 368 kts 304°
2026-05-01 13:51 41.66877 45.29885 10277 ft 361 kts 304°
2026-05-01 13:52 41.68354 45.27201 9975 ft 354 kts 304°
2026-05-01 13:52 41.69770 45.24622 9773 ft 344 kts 304°
2026-05-01 13:52 41.71174 45.22062 9644 ft 332 kts 304°
2026-05-01 13:52 41.72506 45.19632 9516 ft 321 kts 304°
2026-05-01 13:53 41.73805 45.17262 9389 ft 310 kts 304°
2026-05-01 13:53 41.76256 45.12773 9157 ft 290 kts 304°
2026-05-01 13:53 41.77430 45.10620 9030 ft 286 kts 304°
2026-05-01 13:54 41.78617 45.08444 8963 ft 286 kts 304°
2026-05-01 13:54 41.79778 45.06314 8977 ft 286 kts 304°
2026-05-01 13:54 41.80953 45.04160 8984 ft 286 kts 304°
2026-05-01 13:54 41.81953 45.02325 8978 ft 286 kts 304°
2026-05-01 13:55 41.83127 45.00169 8976 ft 286 kts 304°
2026-05-01 13:55 41.84301 44.98012 8981 ft 287 kts 304°
2026-05-01 13:55 41.85463 44.95876 8975 ft 287 kts 304°
2026-05-01 13:55 41.86636 44.93716 8964 ft 287 kts 304°
2026-05-01 13:56 41.87819 44.91536 8960 ft 287 kts 304°
2026-05-01 13:56 41.88990 44.89379 8964 ft 287 kts 304°
2026-05-01 13:56 41.90152 44.87232 8883 ft 288 kts 304°
2026-05-01 13:56 41.91323 44.85064 8716 ft 287 kts 304°
2026-05-01 13:57 41.92503 44.82875 8513 ft 286 kts 304°
2026-05-01 13:57 41.93276 44.81443 8355 ft 284 kts 304°
2026-05-01 13:57 41.94569 44.78506 8214 ft 266 kts 280°
2026-05-01 13:57 41.94472 44.76142 8076 ft 253 kts 246°
2026-05-01 13:58 41.93511 44.74235 7761 ft 250 kts 223°
2026-05-01 13:58 41.92256 44.72603 7471 ft 250 kts 223°
2026-05-01 13:58 41.91031 44.70966 7184 ft 250 kts 223°
2026-05-01 13:58 41.89747 44.69436 6958 ft 244 kts 205°
2026-05-01 13:59 41.88166 44.69032 6906 ft 230 kts 168°
2026-05-01 13:59 41.86699 44.69841 6708 ft 228 kts 139°
2026-05-01 13:59 41.85579 44.71300 6443 ft 222 kts 133°
2026-05-01 13:59 41.84528 44.72776 6162 ft 217 kts 133°
2026-05-01 14:00 41.83485 44.74191 5933 ft 211 kts 133°
2026-05-01 14:00 41.82445 44.75550 5707 ft 205 kts 134°
2026-05-01 14:00 41.81439 44.76829 5530 ft 195 kts 134°
2026-05-01 14:00 41.80456 44.78065 5418 ft 192 kts 134°
2026-05-01 14:01 41.79490 44.79275 5141 ft 189 kts 135°
2026-05-01 14:01 41.78555 44.80445 4856 ft 179 kts 135°
2026-05-01 14:01 41.77679 44.81541 4590 ft 170 kts 134°
2026-05-01 14:01 41.76830 44.82607 4332 ft 164 kts 134°
2026-05-01 14:02 41.75997 44.83651 4088 ft 163 kts 134°
2026-05-01 14:02 41.75176 44.84682 3848 ft 163 kts 134°
2026-05-01 14:02 41.74357 44.85712 3611 ft 163 kts 134°
2026-05-01 14:02 41.73525 44.86760 3368 ft 163 kts 133°
2026-05-01 14:03 41.72710 44.87790 3122 ft 162 kts 134°
2026-05-01 14:03 41.71891 44.88824 2870 ft 160 kts 135°
2026-05-01 14:03 41.71082 44.89845 2623 ft 160 kts 136°
2026-05-01 14:03 41.70271 44.90856 2379 ft 160 kts 136°
2026-05-01 14:04 41.69458 44.91890 2136 ft 159 kts 135°
2026-05-01 14:04 41.68670 44.92896 1896 ft 158 kts 136°
2026-05-01 14:04 41.67867 44.93909 1659 ft 158 kts 137°
2026-05-01 14:04 41.67342 44.94570 1581 ft 148 kts 137°
2026-05-01 14:05 41.66574 44.95542 1552 ft 78 kts 136°
2026-05-01 14:05 41.66240 44.95965 1542 ft 60 kts 136°
2026-05-01 14:05 41.65973 44.96303 1534 ft 33 kts 136°
2026-05-01 14:05 41.65883 44.96419 1527 ft 8 kts 136°
2026-05-01 14:06 41.65849 44.96497 1524 ft 10 kts 97°
2026-05-01 14:06 41.65865 44.96573 1522 ft 5 kts 50°
2026-05-01 14:06 41.65900 44.96601 1524 ft 5 kts 11°
2026-05-01 14:06 41.65927 44.96599 1527 ft 2 kts 345°
2026-05-01 14:07 41.65955 44.96581 1530 ft 6 kts 327°
2026-05-01 14:07 41.66001 44.96523 1535 ft 10 kts 314°
2026-05-01 14:07 41.66058 44.96449 1539 ft 12 kts 316°
2026-05-01 14:08 41.66199 44.96308 1547 ft 11 kts 342°
2026-05-01 14:08 41.66273 44.96299 1551 ft 10 kts
2026-05-01 14:08 41.66340 44.96317 1555 ft 9 kts 13°
2026-05-01 14:08 41.66412 44.96340 1560 ft 11 kts 13°
2026-05-01 14:09 41.66494 44.96366 1565 ft 12 kts 14°
2026-05-01 14:09 41.66583 44.96396 1570 ft 13 kts 14°
2026-05-01 14:09 41.66662 44.96422 1576 ft 9 kts 14°
2026-05-01 14:09 41.66722 44.96443 1580 ft 8 kts 20°
2026-05-01 14:10 41.66765 44.96478 1583 ft 6 kts 40°
2026-05-01 14:10 41.66782 44.96499 1585 ft 1 kts 43°
2026-05-01 14:10 41.66787 44.96505 1585 ft 0 kts 43°